| time (UTC) | temp F | wind direction | speed MPH | gust MPH | rain 1hr in | rain 24hr in | rain mn in | humidity % | barometer mb |
| 20260506182502 | 56 | 261 | 3.0 | 6.0 | 0.00 | 0.86 | 0.86 | 99 | 1006.2 |
| 20260506181959 | 56 | 243 | 3.0 | 5.0 | 0.00 | 0.86 | 0.86 | 99 | 1006.1 |
| 20260506181457 | 56 | 241 | 0.0 | 5.0 | 0.00 | 0.86 | 0.86 | 99 | 1006.3 |
| 20260506180954 | 56 | 238 | 3.0 | 5.0 | 0.07 | 0.86 | 0.86 | 99 | 1006.3 |
| 20260506180450 | 55 | 229 | 2.0 | 13.0 | 0.07 | 0.86 | 0.86 | 99 | 1006.4 |
| 20260506175947 | 55 | 252 | 2.0 | 8.0 | 0.00 | 0.85 | 0.85 | 99 | 1006.2 |
| 20260506175444 | 55 | 227 | 4.0 | 7.0 | 0.00 | 0.85 | 0.85 | 99 | 1006.3 |
| 20260506174940 | 55 | 246 | 1.0 | 5.0 | 0.00 | 0.85 | 0.85 | 99 | 1006.4 |
| 20260506174438 | 55 | 239 | 4.0 | 14.0 | 0.00 | 0.85 | 0.85 | 99 | 1006.5 |
| 20260506173934 | 55 | 235 | 2.0 | 5.0 | 0.05 | 0.85 | 0.85 | 99 | 1006.3 |
| 20260506173432 | 55 | 262 | 1.0 | 6.0 | 0.05 | 0.85 | 0.85 | 99 | 1006.4 |
| 20260506172929 | 55 | 257 | 2.0 | 7.0 | 0.07 | 0.84 | 0.84 | 99 | 1006.5 |
| 20260506172426 | 55 | 249 | 1.0 | 6.0 | 0.07 | 0.84 | 0.84 | 99 | 1006.5 |
| 20260506171923 | 55 | 241 | 4.0 | 5.0 | 0.07 | 0.83 | 0.83 | 99 | 1006.4 |
| 20260506171420 | 55 | 194 | 5.0 | 11.0 | 0.07 | 0.83 | 0.83 | 99 | 1006.5 |
| 20260506170918 | 55 | 203 | 3.0 | 9.0 | 0.05 | 0.82 | 0.82 | 99 | 1006.5 |
| 20260506170413 | 55 | 199 | 4.0 | 8.0 | 0.05 | 0.82 | 0.82 | 99 | 1006.7 |
| 20260506165907 | 55 | 232 | 7.0 | 9.0 | 0.07 | 0.81 | 0.81 | 99 | 1006.5 |
| 20260506165405 | 55 | 213 | 5.0 | 9.0 | 0.12 | 0.81 | 0.81 | 99 | 1006.6 |
| 20260506164901 | 55 | 210 | 4.0 | 6.0 | 0.05 | 0.80 | 0.80 | 99 | 1006.4 |
| 20260506164357 | 55 | 223 | 3.0 | 8.0 | 0.00 | 0.79 | 0.79 | 99 | 1006.7 |
| 20260506163855 | 55 | 221 | 1.0 | 7.0 | 0.07 | 0.79 | 0.79 | 99 | 1006.8 |
| 20260506163349 | 55 | 242 | 3.0 | 11.0 | 0.12 | 0.79 | 0.79 | 99 | 1006.7 |
| 20260506162845 | 55 | 220 | 2.0 | 7.0 | 0.12 | 0.78 | 0.78 | 99 | 1006.7 |
| 20260506162343 | 54 | 182 | 3.0 | 11.0 | 0.19 | 0.77 | 0.77 | 99 | 1006.8 |
| 20260506161841 | 55 | 239 | 4.0 | 7.0 | 0.24 | 0.76 | 0.76 | 99 | 1006.7 |
| 20260506161338 | 54 | 198 | 2.0 | 9.0 | 0.17 | 0.74 | 0.74 | 99 | 1006.8 |
| 20260506160835 | 54 | 210 | 6.0 | 10.0 | 0.12 | 0.72 | 0.72 | 99 | 1006.8 |
| 20260506160332 | 54 | 229 | 4.0 | 8.0 | 0.19 | 0.71 | 0.71 | 99 | 1006.9 |
| 20260506155831 | 54 | 201 | 5.0 | 8.0 | 0.24 | 0.70 | 0.70 | 99 | 1006.8 |
| 20260506155327 | 54 | 199 | 4.0 | 10.0 | 0.19 | 0.68 | 0.68 | 99 | 1007.0 |
| 20260506153445 | 55 | 246 | 1.0 | 3.0 | 0.12 | 0.61 | 0.61 | 99 | 1006.8 |
| 20260506152942 | 55 | 247 | 3.0 | 5.0 | 0.00 | 0.59 | 0.59 | 99 | 1006.6 |
| 20260506152439 | 55 | 222 | 3.0 | 7.0 | 0.05 | 0.59 | 0.59 | 99 | 1006.6 |
| 20260506151937 | 55 | 254 | 1.0 | 3.0 | 0.00 | 0.58 | 0.58 | 99 | 1006.9 |
| 20260506151434 | 55 | 230 | 3.0 | 6.0 | 0.07 | 0.58 | 0.58 | 99 | 1006.8 |
| 20260506150932 | 55 | 200 | 4.0 | 7.0 | 0.14 | 0.58 | 0.58 | 99 | 1006.5 |
| 20260506150428 | 55 | 218 | 4.0 | 10.0 | 0.07 | 0.57 | 0.57 | 99 | 1006.5 |
| 20260506145925 | 55 | 227 | 6.0 | 8.0 | 0.00 | 0.56 | 0.56 | 99 | 1006.5 |
| 20260506145421 | 55 | 202 | 7.0 | 10.0 | 0.05 | 0.56 | 0.56 | 99 | 1006.5 |
| 20260506144919 | 54 | 227 | 5.0 | 8.0 | 0.12 | 0.56 | 0.56 | 99 | 1006.7 |
| 20260506144415 | 54 | 258 | 3.0 | 6.0 | 0.07 | 0.55 | 0.55 | 99 | 1006.8 |
| 20260506143914 | 54 | 210 | 3.0 | 6.0 | 0.05 | 0.54 | 0.54 | 99 | 1006.9 |
| 20260506143410 | 54 | 247 | 1.0 | 9.0 | 0.12 | 0.54 | 0.54 | 99 | 1007.0 |
| 20260506142909 | 54 | 249 | 3.0 | 6.0 | 0.12 | 0.53 | 0.53 | 99 | 1007.3 |
| 20260506142406 | 53 | 262 | 4.0 | 8.0 | 0.12 | 0.52 | 0.52 | 99 | 1007.4 |
| 20260506141904 | 53 | 266 | 3.0 | 5.0 | 0.12 | 0.51 | 0.51 | 99 | 1007.2 |
| 20260506141402 | 53 | 272 | 1.0 | 7.0 | 0.12 | 0.50 | 0.50 | 99 | 1007.4 |
| 20260506140900 | 53 | 241 | 3.0 | 7.0 | 0.19 | 0.49 | 0.49 | 99 | 1007.5 |
| 20260506140356 | 53 | 201 | 5.0 | 6.0 | 0.24 | 0.48 | 0.48 | 99 | 1007.6 |
| 20260506135854 | 53 | 246 | 2.0 | 7.0 | 0.19 | 0.46 | 0.46 | 99 | 1007.7 |
| 20260506135350 | 53 | 252 | 0.0 | 6.0 | 0.19 | 0.44 | 0.44 | 99 | 1008.0 |
| 20260506134846 | 53 | 237 | 2.0 | 3.0 | 0.24 | 0.43 | 0.43 | 99 | 1008.1 |
| 20260506134343 | 53 | 235 | 0.0 | 7.0 | 0.24 | 0.41 | 0.41 | 99 | 1008.1 |
| 20260506133840 | 53 | 240 | 3.0 | 6.0 | 0.24 | 0.39 | 0.39 | 99 | 1008.0 |
| 20260506133337 | 53 | 253 | 2.0 | 5.0 | 0.24 | 0.37 | 0.37 | 99 | 1008.2 |
| 20260506132833 | 53 | 288 | 2.0 | 5.0 | 0.24 | 0.35 | 0.35 | 99 | 1008.0 |
| 20260506132331 | 53 | 242 | 2.0 | 3.0 | 0.19 | 0.33 | 0.33 | 99 | 1008.1 |
| 20260506131829 | 53 | 293 | 1.0 | 2.0 | 0.07 | 0.31 | 0.31 | 99 | 1008.1 |
| 20260506131325 | 53 | 266 | 0.0 | 2.0 | 0.05 | 0.30 | 0.30 | 99 | 1008.0 |
| 20260506130822 | 53 | 259 | 1.0 | 2.0 | 0.12 | 0.30 | 0.30 | 99 | 1008.0 |
| 20260506130318 | 53 | 259 | 1.0 | 1.0 | 0.07 | 0.29 | 0.29 | 99 | 1007.8 |
| 20260506125816 | 53 | 237 | 1.0 | 2.0 | 0.00 | 0.28 | 0.28 | 99 | 1007.8 |
| 20260506125314 | 53 | 236 | 1.0 | 2.0 | 0.05 | 0.28 | 0.28 | 99 | 1007.9 |
| 20260506124813 | 53 | 255 | 2.0 | 3.0 | 0.05 | 0.28 | 0.28 | 99 | 1007.8 |
| 20260506124309 | 53 | 266 | 0.0 | 3.0 | 0.07 | 0.27 | 0.27 | 99 | 1007.9 |
| 20260506123807 | 53 | 252 | 2.0 | 3.0 | 0.07 | 0.27 | 0.27 | 99 | 1007.8 |
| 20260506123305 | 52 | 256 | 1.0 | 2.0 | 0.05 | 0.26 | 0.26 | 99 | 1007.8 |
| 20260506122802 | 52 | 247 | 3.0 | 3.0 | 0.05 | 0.26 | 0.26 | 99 | 1007.9 |
| 20260506122259 | 52 | 256 | 1.0 | 2.0 | 0.00 | 0.25 | 0.25 | 99 | 1007.9 |
| 20260506121757 | 52 | 266 | 0.0 | 3.0 | 0.07 | 0.25 | 0.25 | 99 | 1008.0 |
| 20260506121253 | 52 | 253 | 2.0 | 3.0 | 0.07 | 0.25 | 0.25 | 99 | 1007.8 |
| 20260506120751 | 52 | 265 | 2.0 | 3.0 | 0.05 | 0.24 | 0.24 | 99 | 1007.9 |
| 20260506120249 | 52 | 266 | 1.0 | 1.0 | 0.05 | 0.24 | 0.24 | 99 | 1008.0 |
| 20260506115746 | 52 | 248 | 1.0 | 3.0 | 0.07 | 0.23 | 0.23 | 99 | 1007.9 |
| 20260506115244 | 52 | 260 | 1.0 | 2.0 | 0.12 | 0.23 | 0.23 | 99 | 1008.2 |
| 20260506114742 | 52 | 259 | 1.0 | 2.0 | 0.12 | 0.22 | 0.22 | 99 | 1008.0 |
| 20260506114239 | 52 | 243 | 1.0 | 3.0 | 0.14 | 0.21 | 0.21 | 99 | 1008.3 |
| 20260506113737 | 52 | 245 | 2.0 | 2.0 | 0.12 | 0.20 | 0.20 | 99 | 1008.5 |
| 20260506113234 | 52 | 247 | 0.0 | 2.0 | 0.17 | 0.19 | 0.19 | 99 | 1008.5 |
| 20260506112731 | 52 | 246 | 1.0 | 2.0 | 0.24 | 0.18 | 0.18 | 99 | 1008.6 |
| 20260506112228 | 52 | 246 | 1.0 | 2.0 | 0.19 | 0.16 | 0.16 | 99 | 1008.6 |
| 20260506111726 | 52 | 243 | 1.0 | 2.0 | 0.12 | 0.14 | 0.14 | 99 | 1008.8 |
| 20260506111224 | 52 | 242 | 1.0 | 2.0 | 0.12 | 0.13 | 0.13 | 99 | 1008.6 |
| 20260506110721 | 52 | 246 | 1.0 | 2.0 | 0.12 | 0.12 | 0.12 | 99 | 1008.6 |
| 20260506110218 | 52 | 244 | 1.0 | 3.0 | 0.17 | 0.11 | 0.11 | 99 | 1008.4 |
| 20260506105714 | 52 | 243 | 1.0 | 3.0 | 0.19 | 0.10 | 0.10 | 99 | 1008.4 |
| 20260506105211 | 52 | 244 | 0.0 | 2.0 | 0.07 | 0.08 | 0.08 | 99 | 1008.2 |
| 20260506104710 | 52 | 242 | 2.0 | 2.0 | 0.07 | 0.07 | 0.07 | 99 | 1008.1 |
| 20260506104207 | 52 | 243 | 2.0 | 3.0 | 0.12 | 0.07 | 0.07 | 99 | 1008.3 |
| 20260506103703 | 52 | 244 | 2.0 | 3.0 | 0.12 | 0.06 | 0.06 | 98 | 1008.2 |
| 20260506103200 | 52 | 243 | 1.0 | 5.0 | 0.12 | 0.05 | 0.05 | 98 | 1008.0 |
| 20260506102659 | 53 | 243 | 1.0 | 2.0 | 0.05 | 0.04 | 0.04 | 97 | 1008.1 |
| 20260506102156 | 53 | 243 | 1.0 | 5.0 | 0.07 | 0.03 | 0.03 | 96 | 1008.0 |
| 20260506101653 | 53 | 224 | 4.0 | 5.0 | 0.07 | 0.03 | 0.03 | 96 | 1007.9 |
| 20260506101149 | 53 | 242 | 3.0 | 3.0 | 0.05 | 0.02 | 0.02 | 95 | 1008.2 |
| 20260506100648 | 54 | 226 | 2.0 | 2.0 | 0.05 | 0.02 | 0.02 | 93 | 1008.0 |
| 20260506100145 | 54 | 243 | 1.0 | 2.0 | 0.00 | 0.01 | 0.01 | 92 | 1008.0 |
| 20260506095644 | 55 | 256 | 1.0 | 3.0 | 0.07 | 0.01 | 0.01 | 91 | 1007.8 |
| 20260506095140 | 55 | 260 | 0.0 | 2.0 | 0.07 | 0.01 | 0.01 | 90 | 1007.9 |
| 20260506094638 | 56 | 242 | 3.0 | 6.0 | 0.00 | 0.00 | 0.00 | 87 | 1007.8 |
| 20260506094135 | 56 | 249 | 2.0 | 5.0 | 0.00 | 0.00 | 0.00 | 86 | 1008.0 |
| 20260506093634 | 56 | 202 | 3.0 | 5.0 | 0.00 | 0.00 | 0.00 | 85 | 1007.9 |
| 20260506093131 | 56 | 256 | 2.0 | 6.0 | 0.00 | 0.00 | 0.00 | 86 | 1007.8 |
| 20260506092628 | 56 | 166 | 3.0 | 6.0 | 0.00 | 0.00 | 0.00 | 86 | 1007.8 |
| 20260506092125 | 56 | 243 | 3.0 | 7.0 | 0.00 | 0.00 | 0.00 | 88 | 1007.4 |
| 20260506091623 | 55 | 244 | 1.0 | 3.0 | 0.00 | 0.00 | 0.00 | 89 | 1007.8 |
| 20260506091120 | 55 | 114 | 3.0 | 5.0 | 0.00 | 0.00 | 0.00 | 89 | 1007.7 |
| 20260506090619 | 55 | 246 | 2.0 | 6.0 | 0.00 | 0.00 | 0.00 | 90 | 1007.8 |
| 20260506090114 | 55 | 245 | 2.0 | 3.0 | 0.00 | 0.00 | 0.00 | 90 | 1007.5 |
| 20260506085611 | 55 | 233 | 3.0 | 6.0 | 0.00 | 0.00 | 0.00 | 92 | 1007.7 |
| 20260506085108 | 55 | 115 | 3.0 | 5.0 | 0.00 | 0.00 | 0.00 | 92 | 1007.5 |
| 20260506084605 | 55 | 245 | 3.0 | 3.0 | 0.00 | 0.00 | 0.00 | 95 | 1007.5 |
| 20260506084101 | 55 | 266 | 1.0 | 2.0 | 0.00 | 0.00 | 0.00 | 95 | 1007.7 |
| 20260506083558 | 55 | 230 | 3.0 | 5.0 | 0.00 | 0.00 | 0.00 | 96 | 1007.6 |
| 20260506083055 | 55 | 254 | 1.0 | 3.0 | 0.00 | 0.00 | 0.00 | 97 | 1007.4 |
| 20260506082552 | 54 | 277 | 0.0 | 3.0 | 0.00 | 0.00 | 0.00 | 98 | 1007.6 |
| 20260506082048 | 54 | 255 | 1.0 | 5.0 | 0.00 | 0.00 | 0.00 | 99 | 1007.5 |
| 20260506081546 | 54 | 255 | 2.0 | 3.0 | 0.00 | 0.00 | 0.00 | 99 | 1007.6 |
| 20260506081043 | 54 | 264 | 2.0 | 5.0 | 0.00 | 0.00 | 0.00 | 99 | 1007.5 |
| 20260506080541 | 54 | 286 | 1.0 | 3.0 | 0.00 | 0.00 | 0.00 | 99 | 1007.6 |
| 20260506073524 | 52 | 266 | 1.0 | 2.0 | 0.00 | 0.00 | 0.00 | 99 | 1007.8 |
| 20260506073021 | 52 | 250 | 1.0 | 3.0 | 0.00 | 0.00 | 0.00 | 99 | 1008.0 |
| 20260506072519 | 52 | 238 | 2.0 | 2.0 | 0.00 | 0.00 | 0.00 | 99 | 1008.0 |
| 20260506072016 | 52 | 239 | 1.0 | 3.0 | 0.00 | 0.00 | 0.00 | 99 | 1007.9 |
| 20260506071514 | 52 | 250 | 0.0 | 3.0 | 0.00 | 0.00 | 0.00 | 99 | 1008.1 |
| 20260506071011 | 52 | 259 | 0.0 | 2.0 | 0.00 | 0.00 | 0.00 | 99 | 1008.3 |
| 20260506070508 | 52 | 257 | 0.0 | 2.0 | 0.00 | 0.00 | 0.00 | 99 | 1008.2 |
| 20260506062445 | 52 | 281 | 0.0 | 1.0 | 0.00 | 0.00 | 0.00 | 99 | 1008.7 |
| 20260506061941 | 52 | 282 | 0.0 | 0.0 | 0.00 | 0.00 | 0.00 | 99 | 1009.0 |
| 20260506061438 | 52 | 282 | 0.0 | 0.0 | 0.00 | 0.00 | 0.00 | 99 | 1009.3 |
| 20260506060936 | 52 | 282 | 0.0 | 0.0 | 0.00 | 0.00 | 0.00 | 99 | 1008.8 |
| 20260506060434 | 52 | 282 | 0.0 | 0.0 | 0.00 | 0.00 | 0.00 | 99 | 1009.2 |
| 20260506051406 | 52 | 282 | 0.0 | 0.0 | 0.00 | 0.00 | 0.00 | 99 | 1009.8 |
| 20260506050903 | 52 | 282 | 0.0 | 0.0 | 0.00 | 0.00 | 0.00 | 99 | 1009.7 |
| 20260506050400 | 52 | 282 | 0.0 | 0.0 | 0.00 | 0.00 | 0.00 | 99 | 1009.9 |
| 20260506044851 | 52 | 282 | 0.0 | 0.0 | 0.00 | 0.00 | 0.00 | 99 | 1009.9 |
| 20260506044349 | 52 | 282 | 0.0 | 0.0 | 0.00 | 0.00 | 0.00 | 99 | 1010.1 |
| 20260506043845 | 52 | 281 | 0.0 | 0.0 | 0.00 | 0.00 | 0.00 | 99 | 1009.8 |
| 20260506043343 | 52 | 282 | 0.0 | 0.0 | 0.00 | 0.00 | 0.00 | 99 | 1009.8 |
| 20260506042841 | 52 | 282 | 0.0 | 0.0 | 0.00 | 0.00 | 0.00 | 99 | 1009.8 |
| 20260506042340 | 52 | 282 | 0.0 | 0.0 | 0.00 | 0.00 | 0.00 | 99 | 1010.1 |
| 20260506041838 | 52 | 282 | 0.0 | 0.0 | 0.00 | 0.00 | 0.00 | 99 | 1010.0 |
| 20260506041335 | 53 | 282 | 0.0 | 0.0 | 0.00 | 0.00 | 0.00 | 99 | 1010.2 |
| 20260506040832 | 53 | 281 | 0.0 | 1.0 | 0.00 | 0.00 | 0.00 | 99 | 1010.1 |
| 20260506040329 | 53 | 281 | 0.0 | 1.0 | 0.00 | 0.00 | 0.00 | 99 | 1010.2 |
| 20260506035825 | 53 | 282 | 0.0 | 1.0 | 0.00 | 0.17 | 0.17 | 99 | 1010.3 |
| 20260506035323 | 53 | 282 | 0.0 | 0.0 | 0.00 | 0.17 | 0.17 | 99 | 1010.0 |
| 20260506034820 | 53 | 282 | 0.0 | 0.0 | 0.00 | 0.17 | 0.17 | 99 | 1010.1 |
| 20260506034317 | 53 | 282 | 0.0 | 2.0 | 0.00 | 0.17 | 0.17 | 99 | 1010.2 |
| 20260506033814 | 53 | 301 | 0.0 | 1.0 | 0.00 | 0.17 | 0.17 | 99 | 1010.1 |
| 20260506033311 | 54 | 301 | 0.0 | 0.0 | 0.00 | 0.17 | 0.17 | 99 | 1010.1 |
| 20260506032808 | 54 | 301 | 1.0 | 2.0 | 0.00 | 0.17 | 0.17 | 99 | 1010.2 |
| 20260506032306 | 54 | 298 | 1.0 | 2.0 | 0.00 | 0.17 | 0.17 | 99 | 1010.1 |
| 20260506031801 | 54 | 300 | 0.0 | 3.0 | 0.00 | 0.17 | 0.17 | 99 | 1010.0 |
| 20260506031259 | 55 | 301 | 0.0 | 3.0 | 0.00 | 0.17 | 0.17 | 99 | 1010.2 |
| 20260506030756 | 55 | 300 | 0.0 | 1.0 | 0.00 | 0.17 | 0.17 | 99 | 1009.9 |
| 20260506030254 | 55 | 301 | 0.0 | 1.0 | 0.00 | 0.17 | 0.17 | 99 | 1009.9 |
| 20260506025751 | 55 | 301 | 1.0 | 2.0 | 0.00 | 0.17 | 0.17 | 99 | 1010.0 |
| 20260506025247 | 55 | 301 | 1.0 | 5.0 | 0.00 | 0.17 | 0.17 | 99 | 1009.8 |
| 20260506024744 | 55 | 279 | 0.0 | 0.0 | 0.00 | 0.17 | 0.17 | 99 | 1009.6 |
| 20260506024241 | 55 | 278 | 0.0 | 0.0 | 0.00 | 0.17 | 0.17 | 99 | 1009.5 |
| 20260506023737 | 55 | 279 | 0.0 | 2.0 | 0.05 | 0.17 | 0.17 | 99 | 1009.5 |
| 20260506023234 | 56 | 279 | 0.0 | 0.0 | 0.05 | 0.17 | 0.17 | 99 | 1009.8 |
| 20260506022731 | 56 | 279 | 0.0 | 0.0 | 0.00 | 0.16 | 0.16 | 99 | 1009.9 |
| 20260506022229 | 56 | 278 | 0.0 | 0.0 | 0.00 | 0.16 | 0.16 | 99 | 1009.6 |
| 20260506021727 | 56 | 279 | 0.0 | 0.0 | 0.00 | 0.16 | 0.16 | 99 | 1009.7 |
| 20260506021223 | 56 | 279 | 0.0 | 0.0 | 0.07 | 0.16 | 0.16 | 99 | 1009.5 |
| 20260506020720 | 56 | 278 | 0.0 | 1.0 | 0.07 | 0.16 | 0.16 | 99 | 1009.5 |
| 20260506020218 | 56 | 263 | 0.0 | 0.0 | 0.00 | 0.15 | 0.15 | 99 | 1009.6 |
| 20260506015715 | 56 | 263 | 0.0 | 0.0 | 0.00 | 0.15 | 0.15 | 99 | 1009.7 |
| 20260506015213 | 56 | 262 | 0.0 | 2.0 | 0.00 | 0.15 | 0.15 | 99 | 1009.5 |
| 20260506014710 | 56 | 282 | 0.0 | 1.0 | 0.00 | 0.15 | 0.15 | 99 | 1009.5 |
| 20260506014206 | 57 | 281 | 0.0 | 0.0 | 0.00 | 0.15 | 0.15 | 99 | 1009.4 |
| 20260506013703 | 57 | 258 | 2.0 | 2.0 | 0.05 | 0.15 | 0.15 | 99 | 1009.4 |
| 20260506013200 | 57 | 240 | 0.0 | 2.0 | 0.05 | 0.15 | 0.15 | 99 | 1009.5 |
| 20260506012656 | 57 | 245 | 5.0 | 7.0 | 0.07 | 0.14 | 0.14 | 99 | 1009.6 |
| 20260506012153 | 57 | 244 | 0.0 | 6.0 | 0.07 | 0.14 | 0.14 | 99 | 1009.4 |
| 20260506011651 | 58 | 258 | 3.0 | 5.0 | 0.00 | 0.13 | 0.13 | 99 | 1009.3 |
| 20260506011147 | 58 | 236 | 2.0 | 3.0 | 0.00 | 0.13 | 0.13 | 99 | 1009.2 |
| 20260506010646 | 57 | 187 | 1.0 | 2.0 | 0.00 | 0.13 | 0.13 | 99 | 1009.3 |
| 20260506010142 | 57 | 259 | 0.0 | 0.0 | 0.00 | 0.13 | 0.13 | 99 | 1009.2 |
| 20260506005639 | 57 | 259 | 0.0 | 0.0 | 0.00 | 0.13 | 0.13 | 99 | 1009.1 |
| 20260506005136 | 57 | 258 | 0.0 | 0.0 | 0.00 | 0.13 | 0.13 | 99 | 1009.0 |
| 20260506004632 | 57 | 258 | 0.0 | 0.0 | 0.00 | 0.13 | 0.13 | 99 | 1009.0 |
| 20260506004130 | 58 | 258 | 0.0 | 0.0 | 0.00 | 0.13 | 0.13 | 99 | 1009.1 |
| 20260506003626 | 58 | 258 | 0.0 | 0.0 | 0.00 | 0.13 | 0.13 | 99 | 1009.1 |
| 20260506003122 | 58 | 258 | 0.0 | 0.0 | 0.00 | 0.13 | 0.13 | 99 | 1008.6 |
| 20260506002618 | 58 | 258 | 0.0 | 2.0 | 0.00 | 0.13 | 0.13 | 99 | 1008.8 |
| 20260506002114 | 58 | 245 | 1.0 | 3.0 | 0.00 | 0.13 | 0.13 | 99 | 1009.1 |
| 20260506001610 | 58 | 245 | 0.0 | 2.0 | 0.00 | 0.13 | 0.13 | 99 | 1008.8 |
| 20260506001108 | 58 | 244 | 1.0 | 3.0 | 0.00 | 0.13 | 0.13 | 99 | 1008.8 |
| 20260506000605 | 58 | 261 | 0.0 | 2.0 | 0.00 | 0.13 | 0.13 | 99 | 1008.7 |
| 20260505235601 | 58 | 257 | 1.0 | 2.0 | 0.00 | 0.13 | 0.13 | 99 | 1008.4 |
| 20260505235057 | 57 | 246 | 3.0 | 3.0 | 0.00 | 0.13 | 0.13 | 99 | 1008.4 |
| 20260505234554 | 58 | 235 | 2.0 | 2.0 | 0.00 | 0.13 | 0.13 | 99 | 1008.4 |
| 20260505234050 | 58 | 260 | 0.0 | 0.0 | 0.00 | 0.13 | 0.13 | 99 | 1008.5 |
| 20260505233548 | 57 | 260 | 0.0 | 0.0 | 0.00 | 0.13 | 0.13 | 99 | 1008.5 |
| 20260505233046 | 57 | 160 | 5.0 | 7.0 | 0.00 | 0.13 | 0.13 | 99 | 1008.7 |
| 20260505232543 | 57 | 268 | 1.0 | 2.0 | 0.00 | 0.13 | 0.13 | 99 | 1008.5 |
| 20260505232041 | 57 | 285 | 0.0 | 1.0 | 0.07 | 0.13 | 0.13 | 99 | 1008.6 |
| 20260505231537 | 57 | 261 | 0.0 | 2.0 | 0.07 | 0.13 | 0.13 | 99 | 1008.8 |
| 20260505231036 | 57 | 261 | 0.0 | 0.0 | 0.00 | 0.12 | 0.12 | 99 | 1008.4 |
| 20260505230533 | 58 | 261 | 0.0 | 0.0 | 0.00 | 0.12 | 0.12 | 99 | 1008.4 |
| 20260505230029 | 58 | 261 | 0.0 | 0.0 | 0.00 | 0.12 | 0.12 | 99 | 1008.2 |
| 20260505225526 | 58 | 261 | 0.0 | 0.0 | 0.00 | 0.12 | 0.12 | 99 | 1008.2 |
| 20260505225022 | 58 | 261 | 0.0 | 0.0 | 0.00 | 0.12 | 0.12 | 99 | 1008.1 |
| 20260505224520 | 58 | 261 | 0.0 | 0.0 | 0.00 | 0.12 | 0.12 | 99 | 1008.0 |
| 20260505224017 | 58 | 261 | 0.0 | 1.0 | 0.00 | 0.12 | 0.12 | 99 | 1008.0 |
| 20260505223514 | 58 | 261 | 0.0 | 1.0 | 0.00 | 0.12 | 0.12 | 99 | 1007.9 |
| 20260505223010 | 59 | 268 | 1.0 | 2.0 | 0.00 | 0.12 | 0.12 | 99 | 1008.1 |
| 20260505222506 | 58 | 268 | 0.0 | 2.0 | 0.00 | 0.12 | 0.12 | 99 | 1008.4 |
| 20260505222002 | 58 | 268 | 0.0 | 0.0 | 0.00 | 0.12 | 0.12 | 99 | 1008.3 |
| 20260505221500 | 58 | 268 | 0.0 | 0.0 | 0.00 | 0.12 | 0.12 | 99 | 1008.2 |
| 20260505220957 | 58 | 270 | 0.0 | 0.0 | 0.00 | 0.12 | 0.12 | 99 | 1008.0 |
| 20260505220453 | 58 | 269 | 0.0 | 1.0 | 0.00 | 0.12 | 0.12 | 99 | 1008.2 |
| 20260505215951 | 58 | 268 | 1.0 | 1.0 | 0.00 | 0.12 | 0.12 | 99 | 1008.1 |
| 20260505215449 | 58 | 268 | 0.0 | 1.0 | 0.00 | 0.12 | 0.12 | 99 | 1008.0 |
| 20260505214947 | 58 | 270 | 0.0 | 0.0 | 0.00 | 0.12 | 0.12 | 99 | 1008.1 |
| 20260505214444 | 57 | 270 | 0.0 | 0.0 | 0.00 | 0.12 | 0.12 | 99 | 1008.4 |
| 20260505213941 | 57 | 270 | 0.0 | 0.0 | 0.00 | 0.12 | 0.12 | 98 | 1008.5 |
| 20260505213439 | 57 | 270 | 0.0 | 1.0 | 0.00 | 0.12 | 0.12 | 97 | 1008.5 |
| 20260505212935 | 57 | 280 | 0.0 | 2.0 | 0.00 | 0.12 | 0.12 | 97 | 1009.2 |
| 20260505212432 | 57 | 280 | 0.0 | 1.0 | 0.00 | 0.12 | 0.12 | 96 | 1008.7 |
| 20260505211928 | 57 | 280 | 0.0 | 0.0 | 0.00 | 0.12 | 0.12 | 95 | 1008.8 |
| 20260505211426 | 57 | 280 | 0.0 | 1.0 | 0.12 | 0.12 | 0.12 | 93 | 1008.6 |
| 20260505210922 | 58 | 256 | 1.0 | 6.0 | 0.17 | 0.12 | 0.12 | 92 | 1008.7 |
| 20260505210420 | 58 | 308 | 2.0 | 6.0 | 0.05 | 0.10 | 0.10 | 90 | 1009.1 |
| 20260505205916 | 59 | 310 | 2.0 | 9.0 | 0.07 | 0.09 | 0.09 | 89 | 1009.1 |
| 20260505205415 | 59 | 256 | 4.0 | 8.0 | 0.47 | 0.09 | 0.09 | 86 | 1009.1 |
| 20260505204911 | 63 | 270 | 2.0 | 9.0 | 0.40 | 0.08 | 0.08 | 78 | 1008.8 |
| 20260505204409 | 67 | 111 | 4.0 | 23.0 | 0.00 | 0.01 | 0.01 | 63 | 1008.5 |
| 20260505203906 | 68 | 249 | 4.0 | 7.0 | 0.00 | 0.01 | 0.01 | 54 | 1007.2 |
| 20260505203402 | 68 | 249 | 1.0 | 6.0 | 0.00 | 0.01 | 0.01 | 53 | 1006.6 |
| 20260505202859 | 69 | 246 | 3.0 | 5.0 | 0.00 | 0.01 | 0.01 | 51 | 1006.7 |
| 20260505202355 | 70 | 186 | 5.0 | 8.0 | 0.00 | 0.01 | 0.01 | 52 | 1006.5 |
| 20260505201852 | 70 | 228 | 5.0 | 10.0 | 0.00 | 0.01 | 0.01 | 47 | 1006.5 |
| 20260505201349 | 71 | 194 | 7.0 | 15.0 | 0.00 | 0.01 | 0.01 | 46 | 1006.4 |
| 20260505200847 | 72 | 211 | 4.0 | 13.0 | 0.00 | 0.01 | 0.01 | 44 | 1006.4 |
| 20260505200344 | 73 | 191 | 10.0 | 17.0 | 0.00 | 0.01 | 0.01 | 43 | 1006.0 |
| 20260505195839 | 73 | 208 | 11.0 | 18.0 | 0.00 | 0.01 | 0.01 | 42 | 1006.1 |
| 20260505195337 | 74 | 252 | 15.0 | 20.0 | 0.00 | 0.01 | 0.01 | 43 | 1006.2 |
| 20260505194834 | 74 | 252 | 7.0 | 10.0 | 0.00 | 0.01 | 0.01 | 44 | 1006.3 |
| 20260505194331 | 73 | 248 | 4.0 | 7.0 | 0.00 | 0.01 | 0.01 | 44 | 1006.3 |
| 20260505193826 | 73 | 258 | 5.0 | 9.0 | 0.00 | 0.01 | 0.01 | 43 | 1006.3 |
| 20260505193324 | 73 | 244 | 4.0 | 15.0 | 0.00 | 0.01 | 0.01 | 44 | 1006.0 |
| 20260505192822 | 73 | 266 | 5.0 | 11.0 | 0.00 | 0.01 | 0.01 | 43 | 1006.2 |
| 20260505192320 | 74 | 228 | 8.0 | 13.0 | 0.00 | 0.01 | 0.01 | 43 | 1006.3 |
| 20260505191817 | 74 | 241 | 7.0 | 15.0 | 0.00 | 0.01 | 0.01 | 44 | 1006.4 |
| 20260505191316 | 73 | 247 | 3.0 | 9.0 | 0.00 | 0.01 | 0.01 | 47 | 1006.2 |
| 20260505190812 | 73 | 231 | 8.0 | 13.0 | 0.00 | 0.01 | 0.01 | 45 | 1006.4 |
| 20260505190308 | 73 | 305 | 6.0 | 17.0 | 0.00 | 0.01 | 0.01 | 44 | 1006.4 |
| 20260505185804 | 72 | 244 | 5.0 | 7.0 | 0.00 | 0.01 | 0.01 | 47 | 1006.7 |
| 20260505185300 | 71 | 249 | 6.0 | 10.0 | 0.00 | 0.01 | 0.01 | 46 | 1006.7 |
| 20260505184756 | 71 | 171 | 12.0 | 17.0 | 0.00 | 0.01 | 0.01 | 47 | 1007.2 |
| 20260505184254 | 71 | 269 | 7.0 | 11.0 | 0.00 | 0.01 | 0.01 | 46 | 1006.9 |
| 20260505183751 | 72 | 239 | 7.0 | 11.0 | 0.00 | 0.01 | 0.01 | 45 | 1007.3 |
| 20260505183248 | 73 | 290 | 7.0 | 11.0 | 0.00 | 0.01 | 0.01 | 42 | 1007.0 |